Home > Weather > Bergen > Past weeks

Flag for Norway Weather for the Past 2 Weeks in Bergen, Norway

Now
58 °F

Refreshingly cool.


Feels Like: 57 °F
Forecast: 45 / 57 °F
Wind: 7 mph from Southeast

Location: Bergen / Florida

Current Time: May 6, 2016 at 1:31:28 PM

Latest Report: May 6, 2016 at 12:00 PM


Visibility: N/A

Pressure: 30.14 "Hg

Humidity: 36%

Dew Point: 31 °F

Location of BergenLocation

Historic Weather in Bergen — Graph

°F

Bergen Temperature Yesterday

Maximum temperature yesterday: 58 °F (at 5:00 PM)
Minimum temperature yesterday: 49 °F (at 1:00 AM)
Average temperature yesterday: 53 °F

High & Low Weather Summary for the Past Weeks

 TemperatureHumidityPressure
High58 °F (May 6, 12:00 PM)88% (Apr 23, 8:00 AM)30.26 "Hg (Apr 23, 8:00 AM)
Low31 °F (Apr 24, 6:00 AM)17% (Apr 26, 4:00 PM)29.59 "Hg (Apr 25, 2:00 PM)
Average46 °F58%29.99 "Hg
* Reported Apr 21 12:00 Noon — May 6 12:00 Noon, Bergen, Weather by CustomWeather, © 2016

Note: Actual official high and low records may vary slightly from our data, if they occured in-between our weather recording intervals... More about our weather records

Advertising

Bergen Weather History for the Previous 24 Hours

Scroll right to see more
 ConditionsComfort  
Time TempWeatherWind HumidityBarometerVisibility
12:00 PM
Fri, May 6
58 °FRefreshingly cool.7 mph36%30.14 "HgN/A
11:00 AM56 °FOvercast.8 mph41%30.15 "Hg19 mi
10:00 AM54 °FCool.7 mph42%30.15 "HgN/A
9:00 AM52 °FCool.8 mph47%30.16 "HgN/A
8:00 AM51 °FOvercast.9 mph48%30.16 "Hg19 mi
7:00 AM50 °FCool.6 mph49%30.16 "HgN/A
6:00 AM49 °FCool.5 mph50%30.16 "HgN/A
5:00 AM49 °FCool.6 mph50%30.15 "HgN/A
4:00 AM50 °FCool.6 mph46%30.16 "HgN/A
3:00 AM51 °FCool.7 mph44%30.16 "HgN/A
2:00 AM51 °FCool.6 mph43%30.16 "HgN/A
1:00 AM52 °FCool.6 mph42%30.16 "HgN/A
12:00 AM53 °FCool.7 mph40%30.16 "HgN/A
11:00 PM
Thu, May 5
53 °FOvercast.7 mph39%30.16 "Hg19 mi
10:00 PM53 °FCool.7 mph38%30.16 "HgN/A
9:00 PM55 °FCool.7 mph37%30.16 "HgN/A
8:00 PM56 °FOvercast.8 mph39%30.15 "Hg19 mi
7:00 PM57 °FRefreshingly cool.12 mph41%30.15 "HgN/A
6:00 PM57 °FRefreshingly cool.13 mph42%30.16 "HgN/A
5:00 PM58 °FOvercast.16 mph42%30.16 "Hg19 mi
4:00 PM57 °FRefreshingly cool.7 mph44%30.15 "HgN/A
3:00 PM56 °FRefreshingly cool.9 mph46%30.16 "HgN/A
2:00 PM56 °FOvercast.10 mph48%30.16 "Hg19 mi
1:00 PM55 °FCool.13 mph50%30.17 "HgN/A
Weather by CustomWeather, © 2016

See weather overviewHow to use our weather pages